Погода в Воскресенке

Россия / Самарская область     53°03′22″N   50°00′55″E
темп.,
°C
ветер,
м/с
пор.,
м/с
влажн.,
%
обл.,
%
осадки,
мм/ч
давл.,
гПа
погр.,
м
28 февраля, вс
вс2801:00−11ссз4895100 0.3 1000357
04:00−13сз599599 0.7 1002428
07:00−16сз599395 0.1 1004280
10:00−16сз699397 0.1 1006366
13:00−13сз689296 0.1 1008438
16:00−13сз599198 0.1 1010453
19:00−16сз4794100 0.0 1012206
22:00−16зсз369693 0.1 1014134
1 марта, пн
пн101:00−15сз369698 0.1 1016157
04:00−19сз349673 0.1 101850
07:00−21сз23970 0.0 102025
10:00−18сз34930 0.0 1022187
13:00−14зсз348958 0.0 1022412
16:00−13зсз479079 0.0 1023408
19:00−18зсз239418 0.0 102220
22:00−18юз239922 0.0 102320
2 марта, вт
вт201:00−17юз349867 0.0 102181
04:00−15юз4109583 0.0 1018216
07:00−12юз61294100 0.0 1014364
10:00−9юз71394100 0.6 1011499
13:00−4юз81495100 1.4 1008664
16:00−1юз81497100 2.8 1005739
19:000зюз71397100 1.2 1003553
22:000з5998100 1.9 1002501
3 марта, ср
ср301:00−5з489578 0.3 1002149
04:00−8з479646 0.3 100393
07:00−8з479773 0.1 1003141
10:00−4зсз599479 0.2 1004486
13:00−2сз5889100 0.1 1005737
16:00−2сз5891100 0.3 1005810
19:00−6сз4892100 0.3 1007175
22:00−8зсз489591 0.3 1009193
4 марта, чт
чт401:00−9зсз599582 0.0 1010187
04:00−11зсз479574 0.1 1012125
07:00−13з459642 0.0 101380
10:00−10зюз589448 0.0 1014253
13:00−6юз6108952 0.0 1012405
16:00−4юз8158773 0.0 1010722
19:00−3юз9188599 0.0 1008738
22:00−2зюз9178698 0.0 1008770